Theta_e
311 310 307 303 301 300 299 298 298 298 297 297 297 297 296 296 296 296 296 295 295 296 296 296 296 295 295 295 295 294 294 293 293 292 292 291 290 290 289 289 289 288 288 288 288 288 287 287 286 286 286 285 285 284 284 284 284 284 284 284 284 284 284 284 283 284 285 284 283 283 283 283 283 282 282 283 282 282 281 281 280 280 280 280 280
311 310 306 303 301 300 299 298 297 297 297 296 296 296 296 296 296 295 295 295 295 296 296 296 296 295 295 294 294 294 293 293 292 292 291 290 290 290 289 289 289 288 288 288 288 287 287 287 286 286 285 285 284 284 284 284 284 284 284 284 284 284 283 283 283 283 284 284 283 283 283 282 282 282 282 282 281 281 281 280 279 279 279 279 279
311 310 306 302 301 299 298 297 297 297 296 296 295 295 295 295 295 295 295 295 295 295 295 295 295 295 294 294 294 293 293 292 292 291 290 290 290 289 289 289 289 288 288 288 287 287 287 287 286 286 285 284 284 284 284 284 284 283 283 284 284 283 283 283 283 283 283 283 283 282 282 282 282 282 281 281 280 280 279 279 279 278 278 278 278
311 310 307 303 300 299 297 297 297 296 296 295 295 295 295 295 294 294 294 294 295 295 294 294 294 294 294 293 293 293 292 292 291 291 290 290 290 289 289 289 289 288 288 287 287 287 287 286 286 285 285 284 284 283 283 283 283 283 283 283 283 283 283 283 283 282 282 282 283 282 282 282 282 281 280 280 280 279 279 278 278 277 277 277 277
310 310 307 303 301 299 297 296 297 296 296 295 294 294 294 294 294 294 294 294 294 294 294 294 293 293 293 293 293 292 292 292 291 290 290 290 289 289 289 289 288 288 288 287 287 287 286 286 286 285 284 284 284 283 283 283 283 283 283 283 283 283 283 283 282 281 281 281 282 282 281 280 281 280 279 278 279 279 279 278 277 276 276 276 276
310 310 307 304 301 299 297 297 296 296 295 295 294 294 294 294 293 293 293 293 294 294 294 293 293 293 292 292 292 292 292 291 291 290 290 290 289 289 289 288 288 288 287 287 286 286 286 286 286 285 284 284 283 283 283 283 283 283 283 283 283 283 283 282 281 281 280 280 280 280 280 279 279 280 279 277 277 277 278 278 277 276 275 275 275
309 309 306 303 301 300 298 297 296 296 295 294 294 294 293 293 293 293 293 293 293 293 293 293 292 292 292 292 291 291 291 291 290 290 290 289 289 289 289 288 288 288 287 286 286 286 286 286 286 285 284 284 283 283 283 283 283 283 283 283 283 283 282 281 280 280 279 279 279 279 279 279 278 278 278 277 276 276 275 276 276 275 275 274 275
309 307 305 303 301 300 298 297 296 295 294 294 293 293 293 293 293 293 293 293 293 293 293 292 292 292 291 291 291 291 290 290 290 290 290 289 289 289 289 288 288 287 287 286 286 286 286 286 285 285 285 284 283 283 283 283 283 283 283 283 282 282 281 280 280 279 279 279 279 278 278 278 277 277 277 277 276 275 275 274 274 274 274 274 274
308 306 304 302 301 299 298 296 296 295 294 293 293 293 292 292 292 292 292 292 292 292 292 292 292 291 291 291 290 290 290 290 289 289 289 289 289 289 288 288 288 287 286 286 286 286 286 285 285 285 285 284 284 283 283 283 283 283 282 282 282 281 280 280 279 279 279 278 278 277 277 276 275 275 275 275 274 274 274 274 274 274 273 274 274
308 306 304 301 300 299 297 296 295 294 293 293 293 292 292 292 292 292 292 292 292 291 291 291 291 291 290 291 290 290 290 289 289 289 289 289 289 289 288 288 288 287 287 286 286 286 286 285 285 285 285 284 283 283 283 282 282 282 282 282 282 280 280 279 279 278 278 277 276 275 275 275 274 274 274 274 274 273 273 273 273 273 273 273 275
308 306 304 301 300 298 297 296 295 294 293 293 292 292 292 292 292 292 291 291 291 291 291 291 290 290 290 290 290 290 290 289 289 289 289 289 289 288 288 288 288 287 287 286 286 286 285 285 285 285 284 284 283 283 283 282 282 282 282 281 281 280 279 278 278 277 277 276 275 274 274 274 274 274 274 273 273 273 273 272 272 273 273 273 274
308 306 304 302 300 299 298 296 295 294 293 292 292 292 291 291 291 291 291 291 291 290 290 290 290 290 290 290 290 290 289 289 289 289 289 289 289 288 288 288 288 287 287 287 286 286 286 285 285 285 284 284 284 283 282 282 282 282 281 281 280 279 278 278 277 277 276 275 274 274 274 274 274 274 273 272 273 273 273 273 272 273 273 273 273
308 305 304 302 300 299 298 297 295 294 293 292 292 291 291 291 291 291 291 290 290 290 290 290 290 290 290 290 290 289 289 289 289 289 289 289 289 288 288 288 287 287 287 287 287 287 286 286 285 285 284 284 283 283 283 282 282 282 281 280 279 278 278 278 277 275 275 274 274 274 274 273 273 274 273 272 272 273 273 273 273 273 273 273 273
307 305 303 302 300 299 298 296 295 294 292 292 291 291 291 291 290 290 290 290 290 290 290 290 290 290 290 290 290 289 289 289 289 289 289 289 289 288 288 288 287 287 287 287 287 287 287 286 286 285 284 284 283 283 283 282 282 281 280 279 279 279 278 278 276 274 274 274 274 274 274 274 273 274 274 273 273 273 273 273 273 273 273 273 273
305 304 303 302 300 299 297 296 295 294 292 292 291 291 291 291 290 290 290 290 289 289 290 290 290 290 290 289 289 290 290 289 289 289 289 289 288 288 288 288 287 287 287 287 287 287 287 287 286 285 285 284 283 283 282 282 281 281 280 280 280 279 277 277 276 275 274 274 274 274 274 274 273 274 274 273 273 273 273 273 273 273 273 273 274
302 302 301 301 300 299 297 296 295 294 293 292 291 291 291 291 290 290 290 289 289 289 290 290 290 290 290 289 290 290 290 289 289 289 289 289 288 288 288 288 288 287 287 287 287 287 287 287 286 286 285 284 283 283 282 282 281 280 280 280 279 278 276 276 275 275 275 274 274 274 274 274 273 273 273 273 273 273 273 273 273 273 273 273 274
301 301 301 300 300 299 297 296 295 295 293 292 291 291 291 291 290 290 290 289 289 290 291 290 290 290 289 289 290 290 290 289 289 289 289 288 288 288 288 288 287 287 287 287 287 287 287 287 286 286 285 284 283 282 282 281 280 280 280 279 278 277 276 276 276 275 275 275 274 274 274 273 273 273 273 273 273 273 273 273 273 273 273 273 273
300 300 300 300 300 299 298 296 295 295 294 293 292 292 291 290 290 290 289 289 290 292 292 290 289 289 289 289 290 290 290 290 289 289 289 288 288 288 288 288 287 287 287 287 287 287 286 286 286 286 285 284 283 282 281 280 280 280 279 278 277 277 276 276 276 276 276 275 275 274 274 273 273 273 274 273 273 273 273 273 273 273 273 273 273
300 300 300 299 299 299 298 297 296 296 295 294 293 292 291 290 290 290 289 290 291 292 291 289 289 289 289 289 289 290 290 290 289 289 289 288 288 288 287 287 287 287 287 287 286 286 286 286 286 285 285 284 283 282 281 280 280 279 279 278 277 277 276 276 277 276 276 275 274 274 273 273 273 274 274 273 273 273 273 273 273 272 272 272 272
300 299 299 299 299 299 298 298 297 296 296 294 292 291 290 290 290 290 290 290 291 291 290 289 289 289 289 289 289 289 290 290 290 289 288 288 287 287 287 287 287 287 287 287 286 286 286 286 286 285 285 284 283 282 280 280 279 279 278 278 277 277 277 277 276 276 275 275 274 274 273 273 273 273 273 273 273 273 273 273 272 272 272 272 271
299 299 298 298 298 298 298 297 297 296 295 293 292 291 291 291 290 290 290 290 290 290 289 288 288 288 288 288 289 289 289 289 289 289 288 288 287 287 287 287 287 287 287 286 286 286 286 286 285 285 284 283 282 281 280 279 278 278 278 277 276 276 277 277 276 275 275 274 274 274 273 273 273 273 273 273 273 273 273 272 272 272 272 271 271
300 299 298 298 297 297 296 296 295 295 294 293 292 292 291 291 290 290 289 289 289 289 288 288 288 288 288 288 288 289 289 289 289 289 288 287 287 287 287 287 286 286 286 286 286 286 286 285 285 284 284 283 282 281 280 278 277 278 278 277 276 276 277 276 275 275 275 274 274 274 273 273 273 273 273 273 273 273 273 272 272 272 272 271 270
299 298 297 296 296 295 295 295 294 294 293 293 292 292 291 290 289 289 289 288 288 288 288 287 288 288 288 288 288 288 288 288 288 288 288 287 287 287 287 287 286 286 286 286 286 286 285 285 285 284 283 283 282 281 279 278 277 278 277 276 276 276 276 275 275 275 275 274 274 273 273 273 273 273 273 273 273 273 273 272 272 272 272 272 271
297 296 296 295 295 294 294 294 293 293 293 292 292 291 291 290 289 289 288 288 288 288 288 287 287 287 288 288 288 288 288 288 288 288 287 287 287 286 286 286 286 286 286 286 286 285 285 285 285 284 283 283 282 280 279 278 278 278 276 276 276 276 276 275 274 275 274 274 274 273 273 273 273 273 273 273 272 272 272 272 272 272 272 272 272
295 295 295 294 294 294 293 293 293 292 292 292 291 291 291 290 290 289 289 288 288 288 288 288 287 287 287 287 287 287 287 287 287 287 287 287 287 286 286 286 286 286 286 286 285 285 285 285 284 283 283 282 282 280 279 278 278 278 276 276 276 276 275 274 274 274 274 274 273 273 273 273 273 273 273 272 272 272 272 272 272 272 272 272 272
295 295 294 294 294 293 293 293 292 292 292 291 291 291 290 290 290 290 289 289 289 288 288 288 288 288 287 287 287 287 287 287 287 287 287 287 287 286 286 286 285 285 285 285 285 285 285 285 284 284 283 283 282 281 279 278 278 278 277 276 276 275 274 274 274 274 274 274 273 273 273 272 272 272 272 272 272 272 272 272 272 272 272 272 273
295 295 295 295 294 294 294 293 293 292 292 292 291 291 291 290 290 290 290 289 289 289 288 288 288 288 288 288 288 287 287 287 287 287 287 286 286 286 286 286 285 285 285 285 285 285 285 284 284 283 283 283 282 280 278 278 278 277 277 276 275 275 274 275 275 274 274 273 273 273 272 272 272 272 272 272 271 271 271 272 272 272 272 272 272
295 295 295 295 295 294 294 294 293 293 293 292 292 292 291 291 291 291 291 290 290 290 289 289 289 288 288 288 288 288 287 287 287 287 287 287 287 286 286 286 285 285 285 285 284 284 284 283 283 282 282 282 282 280 278 278 278 277 276 275 275 275 274 274 274 274 274 273 273 272 272 272 272 272 271 271 271 271 271 271 271 272 272 272 272
293 293 293 292 292 292 292 292 292 292 292 291 291 291 291 291 291 291 291 291 290 290 289 289 289 289 288 288 288 288 288 288 287 287 287 286 286 286 286 286 285 285 285 284 284 283 283 282 282 281 282 282 281 279 278 278 277 277 276 275 275 275 274 274 274 274 273 273 272 272 272 272 271 271 271 271 271 271 271 271 271 271 271 271 271
291 291 291 291 291 290 290 290 290 290 290 290 290 290 290 290 290 290 290 290 290 290 289 290 289 289 289 289 289 288 288 288 287 286 286 285 285 285 285 285 284 284 283 283 282 282 282 282 281 282 281 281 280 279 278 277 277 277 276 275 275 274 274 273 273 273 273 272 272 272 271 271 271 271 271 271 271 271 271 271 270 271 271 271 271
290 290 290 290 290 290 290 290 290 290 290 290 290 290 290 290 290 289 289 289 289 289 289 289 289 289 289 289 289 289 288 288 287 287 286 285 284 284 284 283 283 283 282 282 282 282 282 282 282 282 281 281 280 279 278 277 277 276 276 275 275 274 273 273 273 273 272 272 271 271 271 271 271 271 271 271 271 271 271 271 270 270 270 270 271
291 290 290 290 290 290 290 290 290 290 290 290 290 290 290 290 290 290 290 289 289 289 289 289 289 289 289 289 289 289 288 288 287 287 286 285 284 284 283 283 282 282 282 281 281 282 282 281 281 281 281 281 280 279 278 277 277 276 275 275 274 273 273 272 272 272 272 272 271 271 271 270 270 270 270 270 270 271 271 270 270 270 270 270 270
291 291 291 290 290 290 290 290 290 290 290 290 290 290 290 290 289 290 289 289 289 289 289 289 289 289 288 288 288 288 288 287 287 286 286 285 284 283 283 282 282 281 281 281 281 281 281 281 281 281 281 281 280 278 277 277 276 275 275 274 273 273 272 272 272 272 272 271 271 271 270 270 270 270 270 270 270 270 270 270 270 270 270 270 270
291 291 290 290 290 290 290 290 290 290 290 290 290 290 289 289 289 289 289 289 289 289 289 289 289 288 288 288 287 287 287 287 286 286 285 285 284 283 282 281 281 281 280 280 281 281 280 280 281 281 281 280 279 278 277 276 276 275 274 273 273 272 272 272 272 272 272 271 271 270 270 270 270 270 270 270 270 270 270 270 270 270 270 270 270
290 290 290 290 290 290 290 290 290 290 290 290 289 289 289 289 289 289 289 289 289 289 289 288 288 288 287 287 286 286 286 286 286 285 285 284 283 282 280 280 280 280 280 280 280 280 280 280 280 281 280 280 278 277 276 275 275 274 273 273 272 272 272 272 272 272 271 271 271 270 270 270 269 269 269 269 270 270 270 270 270 269 269 269 269
290 290 290 290 290 290 290 290 290 290 290 289 289 289 289 289 289 289 289 288 288 288 288 288 288 287 287 287 286 286 285 285 285 285 284 283 281 279 279 279 280 279 279 280 280 280 280 280 280 280 279 278 277 276 275 275 275 274 273 273 272 272 272 271 271 271 271 271 271 270 270 269 269 269 269 269 269 270 270 270 269 269 269 269 269
291 291 290 290 290 290 290 290 289 289 289 289 289 289 289 289 289 289 288 288 288 288 288 288 288 288 287 287 286 285 285 284 284 284 283 281 279 278 278 279 279 279 279 279 279 279 279 279 279 279 278 277 276 275 275 275 274 273 273 272 272 272 271 271 271 271 271 271 270 270 269 269 269 269 269 269 269 269 269 269 269 269 269 268 268
291 291 291 291 290 290 290 290 290 289 289 289 289 289 289 289 289 289 288 288 288 288 288 288 287 287 287 286 285 284 284 283 282 282 281 280 279 278 278 278 278 278 278 278 278 278 279 278 278 277 276 276 275 275 274 274 274 273 273 272 272 271 271 271 271 271 271 270 270 270 269 269 269 269 268 269 269 269 269 269 269 268 268 268 267
291 291 291 291 290 290 290 290 290 290 290 290 290 289 289 289 289 289 288 288 288 288 288 287 287 287 287 286 284 283 283 282 282 281 281 280 279 279 278 278 277 277 277 277 278 278 278 277 277 276 275 275 274 274 274 273 273 273 272 272 271 271 271 271 271 270 270 270 270 269 269 269 269 268 268 268 268 269 269 269 268 268 268 267 267
291 291 290 290 290 290 290 290 290 290 290 290 290 289 289 289 289 289 288 288 288 288 287 287 287 287 286 285 284 283 282 282 281 281 280 279 279 278 278 277 277 277 277 277 277 277 277 277 276 275 275 274 274 273 273 273 273 273 272 272 271 271 270 270 270 270 270 270 269 269 269 269 268 268 268 268 268 268 268 268 268 267 267 267 267
290 290 290 290 290 290 290 290 290 290 290 289 289 289 289 289 289 289 288 288 288 287 287 287 287 286 285 284 283 282 281 281 280 279 278 278 277 277 277 277 277 277 277 277 277 276 276 276 275 275 274 274 273 273 273 273 273 272 272 271 271 270 270 270 270 270 270 269 269 269 269 268 268 268 268 268 268 268 267 267 267 267 267 267 267
290 290 290 290 289 289 289 289 289 289 289 289 289 289 289 289 288 288 288 288 287 287 287 286 286 285 284 283 282 281 281 280 279 278 277 277 276 276 276 276 276 276 276 275 275 275 275 275 274 274 273 273 273 273 273 273 272 272 271 271 270 270 270 269 269 269 270 269 269 268 268 268 268 268 268 268 268 267 267 267 267 267 267 267 267
289 289 289 289 289 289 289 288 288 288 288 288 288 288 288 288 288 288 287 287 287 286 286 285 285 284 283 282 281 280 280 280 279 278 277 275 275 275 275 275 275 275 275 275 274 274 274 274 274 273 273 273 273 273 272 272 272 271 271 271 270 270 269 269 269 269 269 269 268 268 268 268 268 268 267 267 267 267 267 267 267 267 267 267 267
288 288 288 288 288 288 288 288 288 288 288 288 288 288 287 287 287 287 286 286 286 285 284 284 283 282 281 280 280 279 279 279 278 277 276 275 275 275 275 275 275 275 274 274 274 274 274 273 273 273 273 272 272 272 272 271 271 271 270 270 270 269 269 269 269 268 268 268 268 268 267 267 267 267 267 267 267 267 267 267 267 267 267 267 267
287 287 287 287 287 287 287 287 287 287 287 287 287 287 287 286 286 286 285 285 285 284 283 283 282 281 281 280 279 278 278 278 277 276 275 275 275 275 275 275 274 274 274 274 274 273 273 273 273 273 272 272 272 271 271 271 271 270 270 270 269 269 269 268 268 268 268 268 268 267 267 267 267 267 267 267 267 267 267 267 267 267 267 266 266
287 287 287 287 286 286 286 286 286 286 286 286 286 286 286 285 285 285 284 284 283 283 282 281 281 280 279 279 278 277 277 276 276 275 275 274 275 274 274 274 274 274 273 273 273 273 273 273 272 272 272 271 271 271 271 270 270 270 269 269 269 269 268 268 267 267 268 268 267 267 267 267 267 267 267 267 267 267 267 267 267 267 266 266 266
286 286 286 286 286 286 286 286 286 286 286 286 285 285 285 285 284 284 283 282 282 281 281 280 279 279 278 277 277 276 275 275 275 274 274 274 274 274 273 273 273 273 273 273 273 272 272 272 272 271 271 271 271 271 271 270 270 269 269 268 268 268 268 267 267 267 267 267 267 267 267 267 267 267 267 267 267 267 267 267 267 267 266 266 266
286 286 286 286 286 285 285 285 285 285 285 285 285 284 284 283 283 282 281 281 280 279 279 278 278 277 276 276 275 275 274 274 274 274 274 273 273 273 273 273 273 272 272 272 272 272 271 271 271 271 270 270 270 270 270 270 270 269 269 268 268 268 267 267 267 267 267 267 267 267 267 267 267 267 268 267 267 267 267 267 267 266 266 266 266
285 285 285 285 285 285 285 285 285 284 284 284 283 283 282 281 281 280 279 279 278 278 277 277 276 276 275 275 274 274 274 274 273 273 273 273 272 272 272 272 272 272 272 271 271 271 270 270 270 270 270 270 270 270 270 270 269 269 268 268 268 267 267 267 266 266 266 266 266 266 267 267 267 267 268 267 267 267 267 267 267 266 266 266 266
284 284 284 284 284 284 284 283 283 283 282 282 282 281 280 280 279 279 278 278 277 277 276 275 275 275 274 274 274 274 274 273 273 273 272 272 272 272 271 271 271 271 271 271 270 270 270 270 270 270 270 270 270 270 270 269 269 269 268 268 267 267 267 266 266 266 266 266 266 266 267 267 267 267 268 267 267 267 267 267 267 266 266 266 266
283 283 283 283 282 282 282 282 281 281 281 280 280 279 278 278 278 277 277 276 276 276 275 275 274 274 274 273 273 273 273 273 272 272 272 271 271 271 271 270 270 270 270 270 270 270 270 270 270 270 270 270 270 270 269 269 269 268 268 267 267 267 267 266 266 266 266 266 266 267 267 267 267 267 267 267 267 267 267 267 267 266 266 266 265
Wind_Speed
34 34 34 36 37 39 39 38 36 34 33 32 32 31 30 28 27 26 25 23 21 19 17 14 13 11 10 9 9 8 7 6 5 4 3 2 2 2 3 4 5 5 5 6 6 7 8 8 9 10 10 11 12 13 13 14 15 17 18 20 21 23 25 26 29 33 33 34 36 37 38 39 42 43 44 46 46 46 47 46 45 44 43 42 41
36 35 35 38 39 40 39 39 37 36 35 34 33 32 31 29 28 27 26 24 22 20 18 16 15 14 13 12 11 10 9 7 6 6 4 3 3 3 4 5 5 6 6 7 7 8 9 9 10 11 11 12 12 13 14 15 16 17 19 21 22 23 25 27 29 32 35 35 36 38 39 40 43 44 45 47 48 48 48 47 45 44 42 41 40
37 36 37 39 41 41 41 40 39 37 37 36 35 33 32 30 29 28 27 25 23 21 19 18 17 16 16 15 13 12 10 9 8 7 5 4 3 4 5 5 5 6 7 8 9 10 10 11 11 12 12 13 13 14 15 16 17 19 20 22 23 24 25 27 29 32 35 37 37 39 41 42 44 46 46 47 48 48 47 47 45 43 43 42 40
38 37 38 40 42 43 42 41 40 39 38 37 36 34 33 32 31 30 28 26 24 23 21 20 19 18 17 16 15 13 12 11 9 7 6 5 4 5 5 5 6 7 8 9 10 11 12 12 12 12 13 13 14 15 16 17 18 20 21 23 24 25 27 28 30 32 35 37 38 40 42 43 45 46 47 47 48 47 46 45 45 45 44 42 41
40 39 40 42 44 45 44 43 42 41 40 39 37 35 34 33 32 31 29 27 25 24 23 22 21 19 18 17 16 15 13 12 10 8 7 6 5 5 5 5 6 8 9 10 11 12 12 13 13 13 13 14 14 15 16 18 19 21 22 24 25 27 28 29 31 32 34 37 39 41 42 44 45 46 45 46 47 47 46 46 45 44 42 42 42
42 41 41 43 46 47 46 45 44 42 41 39 38 36 35 34 34 32 31 28 26 25 23 22 21 20 19 18 17 16 14 13 11 9 8 7 6 5 5 6 7 8 10 11 12 12 13 13 13 14 14 14 15 16 17 19 20 21 23 24 26 27 29 30 31 32 33 36 38 40 42 42 44 46 44 42 44 45 45 47 47 43 39 41 44
43 42 43 44 47 48 48 46 44 43 42 40 39 37 36 36 35 33 31 29 27 25 24 23 22 21 21 20 18 16 15 14 12 10 9 8 7 6 5 6 7 8 9 10 11 12 13 14 14 14 14 14 15 17 18 20 21 22 23 25 27 28 30 31 31 32 33 35 36 38 41 41 41 42 43 42 42 41 38 41 47 47 42 39 40
44 43 43 45 47 48 48 46 45 43 42 41 40 38 37 37 35 33 32 30 28 26 24 23 23 23 22 20 18 17 15 14 13 11 10 9 8 6 5 6 6 7 8 9 10 11 13 13 14 14 14 15 17 18 19 21 22 23 24 26 28 29 30 31 31 31 32 34 36 37 38 39 39 40 42 41 41 40 37 36 39 41 41 41 41
44 44 44 45 47 48 47 46 45 44 43 42 41 40 39 38 36 34 32 31 29 27 26 25 25 24 23 21 19 18 16 15 14 12 10 9 9 7 6 5 6 7 7 8 9 11 12 13 14 14 15 16 17 19 20 21 23 24 25 27 28 29 30 30 30 30 31 32 34 34 35 38 38 37 38 38 37 38 37 36 35 37 42 47 47
46 45 45 45 47 48 48 47 46 45 44 42 42 40 39 38 37 35 34 32 30 29 28 27 26 25 24 22 20 19 17 16 15 13 12 11 10 8 6 5 6 6 7 8 9 10 11 12 14 15 16 17 18 19 20 22 23 25 26 27 29 29 29 29 29 28 29 30 31 31 33 35 32 31 34 37 37 36 36 37 41 44 46 50 50
47 46 45 45 47 49 48 47 46 45 44 43 42 41 40 39 38 36 35 34 32 31 29 29 27 26 24 22 20 19 18 18 17 15 14 13 11 9 7 6 6 6 7 8 9 10 11 13 14 15 16 17 18 19 20 22 23 25 26 28 28 28 27 27 27 26 26 27 27 26 27 30 31 32 35 36 36 37 39 40 43 46 46 47 49
48 47 46 45 47 48 47 47 46 45 45 44 43 42 40 40 38 37 37 35 34 32 31 29 28 26 25 23 21 20 19 19 18 17 16 14 12 11 9 7 6 6 6 7 8 10 11 12 14 16 17 18 18 19 21 22 24 25 27 28 28 27 25 23 22 22 21 22 24 24 26 29 33 34 33 34 35 37 39 40 40 42 43 43 45
48 47 46 45 46 47 47 47 46 46 46 45 43 42 41 40 39 38 37 36 34 33 31 30 29 28 27 25 23 21 21 21 21 19 18 16 14 13 11 9 7 6 6 6 7 9 10 11 13 15 17 18 18 20 21 23 24 26 27 27 27 26 24 21 18 16 16 19 23 26 28 29 32 32 30 31 35 36 37 38 39 39 40 40 42
48 48 47 46 46 47 48 48 46 45 45 44 43 42 41 41 40 39 38 36 36 34 32 31 30 29 28 27 24 22 22 23 23 21 19 18 17 15 13 11 10 8 8 8 8 9 11 12 13 14 16 17 18 20 22 23 25 27 27 27 26 24 22 20 17 15 15 19 24 27 28 27 27 29 29 30 32 33 35 37 38 38 38 38 38
48 48 48 47 47 48 48 47 45 44 44 44 44 43 42 41 41 40 38 38 36 34 32 31 32 31 30 28 25 23 24 26 25 22 21 20 19 18 16 14 13 11 10 11 11 11 12 13 14 15 16 17 19 20 22 24 26 27 28 27 26 23 21 20 17 17 19 22 24 26 25 24 24 26 28 28 30 31 32 33 35 35 36 36 35
47 48 48 48 47 47 47 46 45 44 44 45 45 44 43 43 42 40 39 39 37 35 34 34 34 34 32 30 27 25 27 28 26 25 24 23 22 21 19 17 16 14 13 13 14 14 14 14 15 16 16 17 19 21 22 25 27 28 28 26 24 23 21 19 18 19 20 21 23 23 22 22 23 24 25 26 28 29 30 31 31 32 34 35 34
46 46 46 46 45 45 46 45 45 44 45 46 47 46 45 44 42 41 41 40 40 38 36 36 37 36 34 32 29 27 28 29 28 27 26 26 25 24 21 20 18 17 16 16 16 16 16 16 17 18 18 19 20 21 23 25 27 27 26 25 23 22 20 20 20 20 19 19 20 20 21 21 22 23 23 24 25 27 29 29 29 30 33 34 35
43 44 44 44 44 44 45 45 45 45 46 48 48 46 45 44 43 42 41 42 42 40 38 38 39 38 37 34 31 28 29 29 29 29 29 28 27 25 23 22 21 20 19 19 19 18 18 17 18 19 20 20 21 22 23 25 27 26 24 23 23 22 21 20 20 20 19 19 19 19 19 20 21 21 21 22 23 25 26 27 28 29 31 32 34
38 40 41 41 42 43 44 45 46 46 47 48 48 46 45 44 43 42 43 44 44 41 39 41 42 40 39 36 32 30 30 31 31 31 31 30 29 27 26 24 23 22 22 21 21 20 19 19 19 20 21 22 22 23 24 25 25 25 23 22 21 22 22 21 21 21 20 20 19 19 19 19 20 20 20 20 22 23 24 25 26 28 29 30 31
32 35 37 38 39 41 42 44 45 46 47 47 46 45 44 44 44 44 45 46 45 41 42 44 44 42 41 38 35 33 32 32 33 33 33 32 32 30 28 27 25 24 24 24 24 23 21 20 20 21 23 23 24 24 24 23 24 24 23 21 20 22 23 22 21 22 22 22 21 20 20 20 20 20 19 20 21 22 22 23 24 26 28 29 28
29 31 33 35 36 38 39 41 43 43 44 44 43 44 45 46 47 47 48 47 45 44 45 46 45 43 42 40 38 36 34 33 34 35 35 34 33 33 31 29 27 26 27 27 26 25 23 22 22 22 24 24 25 24 24 22 22 23 23 20 20 23 25 23 22 22 23 23 22 21 20 20 20 19 20 20 20 21 21 21 23 24 26 27 27
26 27 29 31 32 34 36 38 39 40 41 42 43 45 46 47 48 49 48 48 46 45 47 47 46 45 44 43 41 39 37 36 36 37 36 35 35 35 34 31 29 29 29 29 29 27 25 24 24 23 24 25 25 25 23 21 21 23 22 20 21 24 24 22 22 23 23 23 22 21 21 21 20 19 19 19 20 21 21 20 21 22 23 24 25
22 23 25 27 28 30 32 33 35 36 37 38 40 42 43 45 47 48 48 47 46 46 47 48 47 47 47 46 45 43 40 39 38 38 38 37 36 37 36 34 32 31 32 32 31 29 27 26 25 24 25 26 26 25 22 21 22 23 22 21 23 24 23 22 22 23 23 23 22 21 21 21 21 20 19 19 19 20 21 20 20 21 22 22 23
19 20 22 24 25 26 28 29 30 31 31 32 34 36 38 40 43 45 46 46 46 47 48 48 49 49 49 49 48 46 44 42 40 40 40 39 39 38 38 36 35 35 35 33 32 31 30 29 27 25 26 27 27 25 23 22 24 24 23 24 25 23 22 23 23 23 23 23 22 21 21 21 22 21 20 20 19 19 20 20 20 21 21 22 22
16 17 19 20 20 21 22 23 24 25 26 27 29 30 32 35 37 39 41 43 44 46 47 49 50 51 51 51 50 49 47 45 43 42 42 42 42 40 39 37 37 38 37 36 34 32 32 32 29 27 27 28 27 26 24 24 25 24 24 25 25 24 23 24 24 24 24 23 22 22 21 21 21 21 21 20 19 19 20 20 20 21 22 22 22
12 14 15 15 15 16 18 19 20 21 22 23 25 26 28 29 31 33 35 38 40 42 44 47 49 50 52 52 52 51 50 48 47 46 45 45 44 43 40 39 39 39 39 38 37 35 35 34 32 29 28 29 29 27 25 24 25 25 24 24 25 24 25 25 25 25 24 23 22 22 21 21 21 21 21 21 20 20 20 20 21 22 24 25 25
11 12 12 13 14 14 15 16 17 18 20 21 22 24 26 27 29 31 32 34 35 37 39 42 45 47 49 50 51 51 51 51 51 50 49 48 47 45 43 42 41 41 40 40 39 38 37 36 34 31 30 30 30 27 25 25 26 25 24 24 24 25 25 25 25 25 24 23 22 22 21 21 21 21 21 21 21 21 21 22 23 24 25 27 27
11 11 12 12 13 14 14 15 16 16 18 19 20 22 23 25 26 28 28 29 31 33 34 36 39 41 43 44 46 49 50 51 52 52 51 49 49 48 46 45 44 43 42 41 39 37 36 36 34 33 32 32 31 28 27 27 26 25 24 24 25 25 25 25 25 25 24 23 22 22 22 21 21 21 21 21 21 21 22 23 24 25 26 27 28
10 10 11 11 12 12 12 13 13 14 15 16 17 19 19 21 22 23 23 25 27 28 30 32 33 35 36 38 41 43 46 47 47 47 47 48 49 49 48 47 45 44 42 40 38 36 36 36 36 35 34 33 31 29 28 28 27 25 24 24 25 25 25 25 25 25 25 24 23 22 22 22 21 21 22 22 21 21 22 23 24 25 26 26 27
9 10 10 11 11 11 12 12 13 13 14 14 15 16 17 18 19 20 21 22 24 26 28 29 30 31 33 35 37 39 41 41 41 41 41 41 43 46 47 46 44 42 40 37 36 37 38 38 38 37 35 33 32 30 29 28 27 26 25 25 25 25 24 24 25 25 25 24 23 23 23 23 22 22 22 23 22 22 22 23 24 25 25 26 27
9 10 11 12 12 13 13 14 14 15 15 15 16 17 18 19 20 21 21 22 23 25 27 28 29 31 33 34 35 37 39 39 40 41 39 38 38 40 42 42 42 41 39 37 38 40 41 40 39 37 35 34 33 31 28 27 26 26 25 25 25 24 23 24 25 25 25 25 24 23 23 24 24 23 23 24 23 23 23 24 24 25 25 26 27
9 9 10 12 13 14 15 16 16 17 18 18 19 20 21 22 23 24 24 25 26 27 28 30 31 33 34 35 36 37 38 39 39 40 39 38 38 38 38 39 39 40 39 38 40 42 42 41 40 38 36 35 33 30 28 26 26 25 25 24 23 22 22 24 25 26 26 25 25 24 24 24 24 25 24 24 24 24 24 24 25 26 26 26 27
10 11 11 12 13 14 15 16 17 18 18 19 20 22 23 24 24 25 26 28 29 30 31 32 33 34 36 37 38 38 38 38 38 39 39 38 37 37 37 37 38 39 39 40 42 42 42 41 40 38 36 35 32 30 28 26 25 24 24 23 22 21 22 24 26 27 26 26 26 25 24 24 25 25 25 25 25 25 25 25 25 26 26 27 27
14 14 15 15 16 16 16 17 18 18 19 20 21 22 23 24 25 26 27 28 29 30 32 33 34 35 35 36 37 37 38 38 37 37 37 38 37 36 36 36 37 38 40 41 42 42 42 41 40 38 36 33 31 29 27 26 25 24 23 23 23 22 22 24 26 26 27 27 27 26 25 25 25 26 26 25 25 26 26 26 26 26 27 27 28
18 18 18 19 19 19 19 20 21 21 22 23 24 25 25 26 27 28 29 29 30 31 31 32 33 34 35 35 35 35 36 37 36 34 34 35 36 35 35 36 38 39 40 42 43 42 41 40 39 37 34 31 30 29 27 26 25 25 24 24 24 23 24 25 26 26 26 27 27 26 26 26 26 26 27 26 26 26 27 26 26 27 27 28 29
20 22 22 23 23 23 23 24 24 25 26 26 27 27 28 29 29 30 30 31 32 32 32 32 32 33 34 35 34 33 33 35 36 35 33 32 32 33 35 38 40 40 41 42 43 41 40 39 38 35 32 30 30 30 28 27 26 26 26 26 25 25 25 25 25 26 27 27 27 26 26 26 26 27 28 27 26 27 27 27 27 27 28 28 29
20 21 22 23 25 25 26 26 27 27 28 28 29 30 30 31 32 32 32 33 33 33 33 33 33 34 34 34 33 33 33 33 34 35 33 30 29 32 36 38 39 41 42 42 41 40 39 37 36 34 31 30 30 29 28 27 27 27 27 27 26 25 25 25 26 26 27 27 27 26 26 27 27 27 28 28 27 27 27 27 28 28 27 27 28
19 20 20 21 23 24 24 25 26 27 28 28 29 30 31 31 32 33 33 33 33 34 34 34 34 35 35 33 31 31 31 31 32 34 33 31 30 33 36 37 39 40 41 40 39 38 36 35 33 32 31 30 30 29 28 28 28 28 28 28 27 26 26 26 26 27 27 27 27 27 26 27 27 28 29 29 28 27 27 27 28 28 27 26 26
19 19 20 20 21 22 23 24 24 25 26 27 28 29 30 31 31 32 32 33 33 33 33 33 33 34 33 31 29 29 29 31 33 34 35 35 34 34 34 36 38 39 39 39 38 36 33 31 30 29 29 29 30 30 29 28 29 28 28 28 27 27 26 26 26 27 27 27 27 27 27 27 27 28 29 29 29 28 28 28 28 27 26 26 25
19 19 19 20 21 22 23 23 24 25 26 26 27 28 29 30 30 31 32 32 33 33 33 33 33 32 30 30 29 28 28 31 33 34 35 36 36 34 34 34 36 36 36 35 34 32 30 29 28 27 28 29 29 29 29 29 29 28 28 28 28 27 26 26 26 27 27 28 27 27 27 27 27 28 29 29 29 28 28 28 27 26 25 25 24
19 19 19 20 21 22 23 24 24 25 25 26 27 28 29 30 30 31 32 33 33 33 33 32 32 31 30 29 29 28 29 30 31 32 33 34 34 35 34 34 34 34 33 32 31 30 29 29 28 27 28 28 28 29 29 29 29 28 27 27 28 27 27 26 26 26 27 28 27 26 26 26 27 29 29 28 28 27 27 27 26 25 24 24 23
19 19 19 20 21 21 22 23 23 24 25 26 27 28 29 30 30 31 32 33 33 33 33 32 31 30 29 29 28 28 29 30 31 32 33 32 32 34 35 34 34 33 32 31 31 30 30 29 29 28 28 28 28 28 29 28 27 27 27 27 28 28 27 26 25 26 27 27 27 26 26 26 28 29 28 27 27 26 26 25 24 24 24 24 23
18 18 19 19 20 21 22 22 23 25 26 26 27 28 29 30 30 31 32 32 32 32 32 31 30 29 28 27 27 27 29 31 31 31 31 30 30 30 31 31 31 31 32 32 31 30 29 29 29 29 29 28 28 28 28 27 27 27 27 27 28 28 28 27 26 25 26 27 27 27 26 26 27 28 28 27 26 25 24 24 24 23 24 24 24
16 17 18 18 19 20 22 23 24 25 26 27 28 28 29 29 30 30 31 31 31 31 30 29 29 28 27 26 26 27 29 31 30 29 27 27 26 25 26 27 29 30 30 30 30 29 30 30 30 30 29 28 27 27 27 26 26 27 27 27 28 28 28 27 25 24 25 27 28 28 27 27 27 27 27 26 25 24 24 24 24 24 24 24 24
16 17 18 19 20 21 22 23 24 25 26 27 27 28 28 29 29 29 30 30 30 30 29 28 28 27 26 26 26 26 27 28 28 25 23 23 23 23 24 25 27 28 28 29 29 30 30 30 30 29 28 26 26 26 26 26 26 26 27 28 28 29 28 27 25 25 26 28 28 28 28 27 27 27 26 25 23 24 24 24 24 24 24 24 24
17 18 18 19 20 21 22 22 23 24 25 26 27 27 27 28 28 28 29 29 29 29 28 27 26 26 25 25 25 25 25 25 24 22 21 21 22 23 24 25 26 27 27 28 29 29 29 29 28 27 26 26 25 25 26 26 26 27 27 28 28 28 28 27 26 26 27 28 28 28 28 28 26 26 25 24 23 24 24 24 25 25 24 23 23
18 18 19 20 20 20 21 22 23 24 25 25 26 26 26 27 27 27 27 27 27 26 26 25 25 24 23 23 23 23 22 22 22 21 20 21 22 23 24 24 25 26 26 27 28 28 27 27 27 26 26 25 25 24 25 26 26 27 27 27 27 28 27 27 27 27 27 28 29 29 28 28 26 25 25 25 24 24 24 25 25 24 24 23 22
17 18 18 19 19 20 21 22 22 23 24 25 25 25 25 25 25 25 25 25 24 24 23 23 23 22 22 21 21 21 21 21 21 21 21 22 22 22 23 24 24 25 26 26 26 26 25 25 25 25 25 24 24 25 25 26 26 27 26 26 26 27 27 27 27 27 27 27 28 28 27 27 26 25 25 25 25 25 25 25 25 24 24 23 22
16 17 18 18 19 20 21 22 22 23 24 24 25 25 24 24 23 23 22 22 22 21 21 20 20 20 20 20 20 20 20 21 21 21 22 22 22 22 22 23 23 24 24 24 24 23 23 24 24 24 25 25 25 25 25 25 26 26 25 25 25 26 27 27 27 26 26 26 26 26 26 26 26 26 26 25 25 25 25 25 24 24 23 23 21
16 17 18 19 19 20 21 21 22 22 22 23 23 23 22 22 21 20 20 19 19 19 19 19 18 19 19 19 19 20 20 21 21 22 22 22 21 22 22 22 22 22 22 22 22 22 23 23 24 24 25 25 25 25 25 25 25 25 25 25 25 25 26 27 26 25 24 25 25 26 26 26 26 27 26 26 26 26 25 24 24 23 23 22 21
16 17 18 18 19 19 20 20 20 20 21 21 21 20 20 19 19 19 18 18 18 18 18 18 19 19 19 19 20 20 21 21 21 21 21 21 21 21 21 21 21 21 21 21 21 21 22 23 24 25 25 25 25 25 24 24 24 24 24 24 25 25 25 26 25 24 24 24 25 26 26 26 27 27 26 26 26 25 24 24 23 23 22 22 21
Wind_Direction
211 210 206 199 196 196 196 196 196 197 197 199 200 199 197 196 195 193 191 188 187 187 188 187 189 190 188 188 192 194 196 196 197 195 189 200 219 246 269 276 278 281 283 287 292 297 297 297 297 298 299 301 303 306 310 313 316 319 320 322 325 325 325 324 320 319 323 325 324 324 325 324 322 323 322 320 320 319 318 318 318 318 317 316 316
211 211 207 200 197 198 198 198 198 199 199 200 201 200 199 197 196 195 193 192 192 192 193 194 194 194 192 193 194 193 194 197 200 197 191 201 224 252 267 269 270 273 279 285 287 288 288 287 287 289 291 294 298 302 306 311 313 316 318 319 322 323 322 321 319 317 320 324 324 323 324 323 322 322 321 320 319 319 319 319 320 320 319 319 318
213 211 209 203 199 200 201 201 201 201 202 202 202 201 200 199 197 196 196 195 192 192 194 196 196 196 194 194 194 193 196 200 199 196 194 205 236 256 260 263 269 275 280 283 283 281 280 280 281 284 287 291 296 300 305 309 311 313 316 317 318 319 318 318 318 317 318 322 324 323 323 323 322 321 320 320 321 321 321 320 321 322 322 323 323
214 213 211 206 202 201 202 203 203 203 204 204 203 202 201 200 198 198 198 197 195 193 194 195 196 196 194 194 195 196 200 203 200 197 201 214 236 249 255 265 275 283 284 281 278 275 274 276 279 282 286 290 295 301 304 307 309 311 314 314 315 316 317 317 318 317 317 320 323 323 322 322 322 321 322 322 321 321 322 323 324 325 326 327 327
215 214 213 209 205 203 204 205 205 206 206 205 204 204 202 201 201 201 200 200 200 199 198 198 197 197 196 197 198 200 203 205 202 199 205 218 232 243 257 274 283 288 287 280 276 273 273 277 280 282 286 290 295 300 303 305 306 309 311 312 313 314 316 317 317 317 317 318 321 323 322 322 321 321 324 326 324 323 323 325 328 330 329 329 330
217 216 214 211 207 204 205 206 207 208 207 206 205 205 204 203 204 204 203 203 204 204 204 202 200 199 200 200 201 203 205 204 202 202 208 217 229 242 262 279 290 294 290 282 277 276 277 278 280 283 286 291 295 298 300 301 304 307 309 311 312 313 316 317 317 317 317 318 319 321 321 321 321 322 326 330 330 329 328 327 329 330 329 329 330
218 216 214 212 208 206 206 208 209 209 209 207 207 206 205 206 207 207 205 206 207 208 206 205 204 204 205 204 203 204 205 205 205 205 208 216 228 244 265 285 300 302 296 289 284 281 280 279 281 285 289 293 295 295 298 300 303 306 308 309 311 314 315 316 316 317 317 316 317 318 320 322 324 325 327 331 332 333 333 329 327 327 328 328 328
219 217 215 213 210 208 209 209 210 211 210 209 208 208 207 208 209 209 208 209 210 210 209 209 209 208 207 206 205 205 207 209 208 207 209 216 229 245 268 289 306 310 305 299 293 288 284 281 284 288 290 292 293 294 298 300 302 305 307 309 312 314 314 315 315 315 315 315 317 320 322 324 327 330 331 334 333 331 330 326 323 324 325 323 321
220 218 216 214 212 210 211 211 211 212 212 210 209 209 209 210 210 211 212 212 211 211 211 211 212 211 208 206 205 206 207 207 206 208 212 220 232 248 269 291 310 319 317 313 306 299 292 289 290 291 291 291 293 295 298 300 303 305 308 310 311 312 313 313 313 314 316 318 321 325 326 327 331 333 332 331 328 325 324 323 320 320 319 319 321
220 219 217 216 213 212 213 213 213 212 213 213 212 211 211 212 213 213 214 213 213 212 211 212 212 211 211 210 209 209 209 210 211 214 219 224 233 247 263 285 306 321 328 328 323 314 306 300 297 294 292 292 293 295 298 300 302 304 307 309 309 310 311 311 312 316 319 322 325 328 327 326 328 328 323 322 322 320 320 319 318 319 320 322 325
221 220 218 217 215 214 215 215 215 215 215 215 215 214 213 214 215 215 215 214 214 213 212 213 213 211 212 213 212 214 214 215 217 220 223 227 236 246 256 271 293 318 333 338 335 328 319 310 301 296 293 293 294 296 297 298 300 302 304 306 307 307 308 310 315 320 322 322 322 323 320 318 319 319 318 320 320 318 318 317 317 319 322 323 324
222 221 219 218 217 217 216 217 217 217 217 217 217 215 215 216 216 216 217 216 216 215 214 215 215 214 214 214 215 215 216 219 223 225 226 231 239 245 249 259 279 306 328 339 341 336 326 314 305 298 295 294 296 296 296 297 298 300 302 304 305 305 305 309 315 318 319 316 312 311 311 312 315 318 318 317 317 318 319 319 319 320 322 323 322
223 222 221 220 220 219 218 219 219 219 219 219 218 218 217 218 219 219 219 219 218 217 217 217 217 217 218 219 217 215 218 226 229 228 230 236 242 244 246 254 268 286 306 321 330 331 326 318 310 303 299 297 296 296 295 296 297 299 302 303 302 300 302 310 315 313 307 304 304 307 310 311 314 317 318 316 316 319 320 320 321 322 322 322 323
224 223 223 222 222 221 221 220 220 220 221 220 220 220 220 221 222 222 221 221 220 219 220 221 222 222 222 222 218 217 226 233 231 229 235 242 244 243 244 250 260 271 283 293 303 312 316 316 312 307 303 299 296 294 294 295 297 299 300 299 297 299 306 316 319 311 302 302 304 308 312 314 315 317 319 318 318 319 320 321 323 323 321 322 324
224 224 224 224 223 223 223 222 222 222 223 223 223 223 223 224 224 223 223 224 222 222 225 228 227 226 225 221 218 224 233 234 232 234 242 245 246 245 245 248 256 265 273 281 289 296 302 307 309 307 303 298 293 292 293 294 296 298 297 297 300 306 313 319 318 311 308 309 309 311 314 317 317 319 320 320 319 319 320 322 322 321 320 322 326
226 225 225 225 225 225 225 224 223 224 225 225 225 226 226 226 225 224 226 224 222 226 231 232 230 229 225 221 223 231 236 234 235 241 245 247 248 249 249 252 256 262 269 276 282 287 294 301 305 305 302 297 292 291 292 294 296 297 298 301 305 309 312 314 313 310 310 311 310 311 315 317 318 319 319 319 319 320 321 322 322 320 321 324 330
229 229 229 229 229 228 227 226 226 226 226 227 227 228 229 228 226 227 227 224 225 233 237 233 230 229 226 224 228 235 238 237 240 245 247 247 249 251 252 254 257 261 268 273 278 283 290 297 301 303 301 296 292 291 291 293 294 296 300 303 304 305 308 309 309 310 311 311 310 312 316 318 317 317 317 319 321 321 321 323 324 324 325 328 333
234 234 234 233 232 231 230 229 229 228 229 230 231 232 231 229 229 229 227 227 234 243 242 233 230 230 227 227 231 237 241 242 245 248 248 247 248 251 253 255 257 262 267 271 275 280 286 294 299 300 298 294 291 290 290 291 293 296 299 301 301 303 305 306 309 312 313 312 312 315 316 316 314 315 318 322 323 320 321 325 327 327 328 330 333
240 239 238 237 236 235 235 234 233 233 234 234 234 233 232 232 232 231 230 234 243 248 241 232 230 230 229 228 229 235 242 245 247 249 248 247 249 251 253 255 258 263 267 270 274 278 284 290 295 296 295 292 289 288 290 292 294 295 297 298 301 303 303 306 312 315 314 315 317 317 315 313 313 316 321 323 321 320 323 326 327 327 326 329 333
245 242 241 241 241 241 240 240 239 239 239 238 236 235 234 235 235 235 236 241 245 244 236 231 232 232 230 229 231 235 241 245 248 249 248 248 250 252 253 255 258 263 266 269 272 276 282 287 290 292 292 291 289 290 292 293 293 293 294 298 303 303 303 308 314 316 316 317 318 317 315 314 316 318 320 321 320 320 323 326 327 326 325 327 333
245 244 244 246 247 246 245 244 244 244 243 241 238 237 237 238 238 239 240 241 243 240 234 232 233 233 231 232 234 237 240 244 247 249 248 248 250 253 255 256 258 262 265 267 271 275 280 284 286 288 288 289 289 289 291 292 289 288 291 297 300 298 302 311 315 314 314 314 313 313 312 312 314 317 318 318 318 318 321 324 325 324 324 326 330
246 248 249 249 249 248 247 246 246 245 245 243 242 241 241 241 241 241 240 240 241 239 236 234 234 235 235 235 237 239 240 243 245 248 249 249 250 254 257 257 257 260 263 266 270 274 277 280 283 284 286 286 287 287 289 289 284 281 287 292 292 293 301 309 309 308 308 307 307 309 309 309 311 313 313 315 316 316 319 323 325 324 324 326 330
245 246 247 248 248 248 248 248 248 248 248 247 247 246 245 244 243 242 241 241 241 240 238 237 237 238 238 239 239 240 241 243 245 248 249 249 249 253 257 258 258 260 263 266 270 273 275 277 280 281 282 283 285 286 286 283 279 279 283 285 286 291 299 303 302 303 304 303 303 305 306 306 308 309 311 312 314 315 316 320 324 323 322 326 330
240 242 244 246 247 248 249 250 251 252 252 251 250 249 248 247 246 246 245 244 243 242 241 241 241 241 242 243 243 243 244 245 247 249 250 251 251 252 255 258 260 262 263 265 268 271 274 276 277 278 279 281 283 284 282 279 279 280 280 280 285 292 296 297 298 300 300 299 299 301 302 303 305 307 310 311 313 314 315 318 321 321 320 324 328
238 239 242 244 246 248 250 250 251 252 252 252 251 250 250 249 249 249 249 248 247 246 245 245 245 246 247 247 248 248 248 248 249 251 252 253 253 253 254 257 260 263 265 266 268 269 272 273 274 274 275 278 281 282 280 279 279 279 277 279 285 291 292 292 294 296 296 296 296 297 299 300 302 304 308 311 313 313 312 313 315 316 317 319 323
231 234 238 240 242 244 245 246 247 248 248 249 250 250 251 251 251 251 252 251 251 250 250 249 250 250 251 252 252 252 252 252 252 253 253 254 255 255 255 257 259 262 265 267 269 269 270 271 273 274 274 277 280 281 281 279 277 276 276 278 283 286 287 289 291 292 293 293 293 295 296 297 299 303 306 310 312 311 310 310 311 313 315 318 320
221 226 230 232 235 238 240 242 245 247 248 248 249 250 250 250 251 251 251 251 252 252 251 251 252 252 253 254 255 256 256 256 255 254 254 255 257 257 257 257 258 259 262 266 268 271 272 273 275 275 275 277 280 281 280 278 275 274 275 276 278 280 282 285 288 290 291 291 291 293 294 294 298 301 304 307 309 309 309 310 311 313 315 317 319
219 225 228 232 235 238 241 244 246 248 249 250 251 252 252 252 252 253 253 254 254 254 254 254 254 254 255 257 258 259 259 259 259 259 258 259 260 260 259 258 259 260 262 264 266 268 270 271 272 272 273 276 278 278 277 276 273 272 271 271 273 276 280 284 287 288 289 290 290 291 292 293 296 299 301 303 305 306 306 308 310 312 314 316 318
223 228 231 234 238 240 243 246 248 249 252 253 255 256 257 258 259 260 260 260 259 260 260 260 260 261 261 262 262 262 262 263 264 266 266 265 264 262 261 261 261 262 264 265 265 264 264 265 266 267 269 272 274 274 275 273 269 267 267 268 271 274 278 282 285 287 288 289 290 290 291 292 295 296 298 300 302 303 305 306 308 310 312 314 316
231 234 236 240 243 245 247 250 251 253 255 257 259 261 262 263 264 264 264 264 264 263 264 264 264 264 264 263 263 263 264 266 268 268 267 265 263 262 261 260 259 260 261 260 260 259 259 260 262 264 266 268 270 271 271 269 265 265 265 267 270 273 276 280 284 285 287 287 288 288 289 291 292 294 295 297 299 301 303 306 308 310 311 313 315
240 243 247 249 250 251 252 253 255 256 258 259 260 261 263 264 265 266 267 268 268 267 267 267 266 265 264 264 264 264 264 265 266 266 265 263 261 260 259 257 256 256 256 254 255 257 258 259 260 262 264 266 268 270 268 263 259 260 262 264 267 272 276 280 282 282 284 284 285 285 286 288 290 292 294 296 298 300 302 305 308 309 310 313 315
245 248 251 253 253 253 254 255 257 258 259 261 262 262 264 265 266 268 269 269 269 268 268 268 267 267 267 267 267 267 266 266 267 267 266 264 261 259 257 255 253 253 252 252 253 256 257 258 260 262 264 266 269 271 269 263 258 257 259 262 266 270 274 277 278 279 281 282 282 282 284 286 288 290 293 295 297 300 302 304 306 307 309 311 314
245 246 247 248 250 252 254 256 259 260 262 264 265 266 267 268 269 271 270 269 270 270 270 270 270 270 271 271 272 273 272 271 269 268 267 265 262 258 256 253 251 250 250 250 252 254 255 257 259 261 264 267 269 271 270 266 263 262 263 265 267 269 269 271 274 276 278 279 279 280 282 283 285 288 291 293 296 299 302 304 305 306 308 311 312
248 250 250 251 252 254 256 258 260 261 263 264 265 266 267 269 270 271 271 271 273 274 275 276 276 276 276 276 276 277 276 275 272 270 268 266 262 258 255 252 250 249 249 249 251 253 254 256 258 261 264 267 271 273 271 268 266 265 266 268 268 267 266 268 270 273 275 276 277 279 281 282 285 287 289 291 294 297 300 302 304 306 308 310 311
253 255 256 256 257 258 259 260 262 263 265 266 267 268 269 270 271 272 273 274 275 275 276 278 279 280 280 278 277 276 275 275 275 273 269 266 263 257 251 249 247 245 245 247 250 251 253 255 258 261 265 269 273 274 271 267 265 266 267 268 267 267 267 267 269 271 272 273 274 277 279 281 284 286 288 290 293 295 298 301 304 306 308 309 310
256 257 259 259 260 261 261 262 263 265 267 268 270 270 271 272 272 272 273 274 275 276 278 279 280 279 279 278 277 275 273 273 274 273 269 265 260 253 248 247 248 247 247 248 250 251 253 256 259 262 266 268 270 270 268 265 264 265 267 267 267 267 267 268 269 269 270 271 273 275 277 280 282 284 286 289 291 293 296 300 302 304 306 308 308
261 261 261 262 263 263 264 265 266 267 268 268 269 270 271 273 274 274 275 276 277 278 279 279 278 278 277 276 276 275 273 272 273 272 270 264 256 250 250 250 251 250 249 249 249 250 253 256 259 263 265 267 267 267 265 263 263 264 266 267 267 267 268 268 268 269 270 271 273 274 275 278 280 282 284 287 289 292 295 298 300 301 304 305 305
268 267 266 266 266 267 268 269 270 271 271 272 273 274 275 276 276 277 277 277 277 277 277 277 277 276 277 277 276 275 273 271 268 267 266 261 253 250 251 250 249 249 250 250 250 251 252 254 258 262 264 265 266 265 263 261 261 263 265 267 268 267 267 268 269 270 271 272 272 273 274 276 278 281 283 285 288 291 294 296 298 299 301 302 301
272 272 270 270 270 271 272 273 274 274 275 276 277 277 277 277 277 278 278 277 277 276 276 276 276 276 277 277 276 273 270 267 264 262 262 260 256 253 251 249 248 248 249 251 252 253 254 256 258 260 262 263 263 262 260 259 260 262 265 267 268 268 268 269 271 271 271 272 272 272 273 275 277 280 282 284 288 291 293 295 296 298 299 299 299
274 275 274 275 276 276 276 276 277 278 278 279 278 278 278 278 279 279 279 278 278 277 276 276 275 274 275 274 272 270 267 265 265 263 260 258 257 255 252 249 249 249 250 252 255 258 259 260 260 260 259 259 258 257 257 258 260 262 265 267 269 270 270 270 271 272 272 273 273 272 273 275 277 278 280 283 287 290 292 293 294 296 296 297 298
274 275 276 276 276 276 277 278 279 279 280 280 279 280 281 281 281 280 280 279 279 278 277 276 275 273 271 270 268 267 264 262 261 260 257 255 254 253 251 249 249 251 254 257 260 262 262 262 262 260 258 256 254 254 256 258 260 263 265 268 269 270 270 270 271 272 273 273 273 273 274 275 276 277 279 283 286 288 290 292 293 294 295 296 297
271 272 272 273 273 275 276 278 279 279 278 279 279 280 281 281 281 281 281 281 281 280 279 279 277 275 272 270 267 265 263 261 258 256 255 253 251 249 249 249 250 253 256 258 259 261 262 262 262 261 259 257 255 255 257 259 261 264 266 267 269 270 271 272 272 272 272 273 274 275 275 275 275 277 280 283 285 287 288 289 291 292 294 295 296
269 271 272 273 275 277 278 279 279 279 279 280 280 280 280 280 280 280 280 281 280 280 279 279 278 276 273 271 267 263 261 259 256 254 252 251 249 247 248 249 250 253 255 257 258 259 260 260 260 259 258 257 257 257 259 260 262 264 265 268 270 271 272 272 272 272 273 274 275 275 274 274 275 277 280 281 283 285 286 288 290 292 294 295 295
271 274 276 277 279 279 279 279 279 280 280 280 281 281 281 282 282 281 281 280 280 279 278 277 276 274 272 269 265 262 260 259 257 254 252 250 248 246 246 248 251 253 255 256 257 257 257 257 258 257 257 257 257 258 259 261 262 264 266 267 269 270 272 273 274 274 273 272 273 273 274 274 275 276 278 280 281 283 284 287 289 291 293 294 295
274 275 277 278 278 277 278 279 279 280 281 282 283 284 284 284 284 284 283 281 280 278 277 276 274 273 270 268 265 262 260 259 258 255 252 250 249 249 249 250 251 252 253 253 253 254 255 256 257 257 257 257 257 259 260 262 264 266 267 268 270 272 273 275 275 272 270 270 272 273 274 273 273 274 276 278 280 282 285 287 289 290 292 294 294
275 276 276 277 277 279 280 282 282 283 284 284 284 285 285 284 284 283 282 280 279 277 276 274 272 271 269 267 264 261 259 258 258 255 251 249 249 250 250 250 249 250 250 251 252 253 254 255 257 258 258 258 258 260 262 265 267 269 270 271 272 274 275 275 273 271 269 270 271 272 272 273 273 274 275 278 280 282 285 288 289 290 291 292 292
273 274 276 277 279 281 283 284 284 285 285 285 285 284 284 284 283 281 280 279 277 275 274 272 270 268 266 263 260 257 255 254 254 253 251 250 250 250 250 250 250 250 251 251 252 253 254 256 257 258 259 260 260 263 266 268 270 271 271 273 274 275 275 274 272 270 270 269 270 271 272 273 273 274 276 279 281 284 286 288 290 290 290 291 291
273 275 277 279 281 282 283 283 283 283 283 283 283 283 283 283 282 281 279 278 275 273 272 270 267 264 261 257 254 252 251 250 252 254 254 254 253 252 252 251 251 251 251 252 253 254 256 257 258 260 261 263 265 266 268 269 271 272 273 274 274 273 272 271 270 269 269 269 270 271 272 273 274 276 277 280 283 285 288 289 290 290 290 289 288
277 279 280 282 283 283 283 283 283 283 283 283 283 283 283 283 282 281 279 278 275 272 270 266 263 260 256 252 251 251 251 252 254 255 255 255 255 254 253 252 251 251 251 252 254 256 257 258 259 262 264 266 267 269 270 272 274 275 275 275 273 272 270 269 268 268 268 268 268 270 271 273 275 277 279 281 284 287 289 290 290 289 288 287 286
283 283 284 285 285 285 286 286 286 287 286 285 285 285 285 284 283 282 279 277 275 272 268 264 261 257 255 254 253 253 254 255 255 255 256 257 257 257 256 255 254 254 254 254 255 257 258 260 262 264 266 268 270 271 273 275 276 277 277 276 274 271 270 269 268 267 266 266 266 268 270 272 274 277 279 282 285 288 289 290 289 288 286 285 284
286 287 287 287 287 288 289 289 290 290 289 288 288 287 286 284 283 281 278 275 272 269 265 261 258 256 256 256 256 256 256 256 257 258 259 260 259 258 258 257 257 258 258 259 259 260 261 262 264 266 267 270 272 274 276 277 278 278 277 275 273 271 269 269 268 266 264 264 264 266 267 270 273 276 280 283 286 288 289 289 288 287 285 284 282